Regional Weather Roundup
Issued by NWS Kansas City/Pleasant Hill, MO

Home | Current Version | Previous Version | Text Only | Print | Product List | Glossary On
Versions: 1 2 3 4 5 6 7 8 9 10 11 12 13 14 15 16 17 18 19 20 21 22 23 24 25 26 27
000
ASUS43 KEAX 212110
RWREAX

WEATHER ROUNDUP FOR EASTERN KANSAS AND NORTHWEST MISSOURI
NATIONAL WEATHER SERVICE KANSAS CITY/PLEASANT HILL MO
400 PM CDT SAT OCT 21 2017

KSZ040-057-103>105-MOZ028-029-037-043-212200-
...KANSAS CITY METROPOLITAN AREA...

CITY           SKY/WX    TMP DP  RH WIND       PRES   REMARKS
K.C. INTL      CLOUDY    74  64  71 S16G23    29.80S
K.C. DOWNTOWN  CLOUDY    77  65  66 S12       29.80F
LEES SUMMIT    CLOUDY    76  64  66 S16G24    29.83S
OLATHE - IXD   CLOUDY    75  64  68 S18G24    29.81F
OLATHE - OJC   CLOUDY    74  64  71 S13G20    29.81F
LAWRENCE       CLOUDY    76  65  68 S14G23    29.78S

$$

MOZ001>008-011>017-020>025-030>033-038>040-044>046-053-054-212200-
...NORTHERN AND CENTRAL MISSOURI...

CITY           SKY/WX    TMP DP  RH WIND       PRES   REMARKS
ST. JOSEPH     LGT RAIN  75  65  70 S16G25    29.77F
MOSBY          CLOUDY    75  61  60 S13       29.81S
WARRENSBURG    CLOUDY    77  61  57 S13G20    29.84R
WHITEMAN AFB   PTSUNNY   79  64  58 S17G28    29.80F
CLINTON        CLOUDY    79  63  57 S7        29.85F
SEDALIA        SUNNY     80  65  59 S21G28    29.87F
WARSAW         NOT AVBL
CHILLICOTHE      N/A     76  64  66 S6        29.84S
KIRKSVILLE     CLOUDY    77  63  61 S12G20    29.87R

$$

MOZ041-047>049-056>058-063>065-088>090-097-212200-
...EASTERN AND SOUTHERN MISSOURI...

CITY           SKY/WX    TMP DP  RH WIND       PRES   REMARKS
ST. LOUIS INTL PTSUNNY   80  61  52 S21G29    29.97F
SPIRIT OF STL  PTSUNNY   81  62  52 S12G21    29.95F
COLUMBIA       PTSUNNY   76  63  64 S17G24    29.91R
JEFFERSON CITY MOSUNNY   79  62  56 S18G24    29.91S
ROLLA          PTSUNNY   76  63  64 S21G28    29.96F
OSAGE BEACH    MOSUNNY   78  63  59 S16       29.93R
SPRINGFIELD    CLOUDY    78  63  59 S22G30    29.91R
BRANSON        PTSUNNY   75  63  64 S15G21    29.96S
JOPLIN         MOSUNNY   78  65  63 S18G29    29.86F
WEST PLAINS    CLOUDY    74  65  73 S6        30.01F

$$

IAZ060-094-KSZ022-034>040-054-083-096-NEZ052-066-093-212200-
...KANSAS...SOUTHEAST NEBRASKA AND IOWA...

CITY           SKY/WX    TMP DP  RH WIND       PRES   REMARKS
TOPEKA         CLOUDY    76  66  71 S16G24    29.76S
MANHATTAN      CLOUDY    71  53  52 W5        29.76R
EMPORIA        CLOUDY    73  63  70 S21G28    29.77S
CHANUTE        CLOUDY    76  65  68 S20G28    29.82R
WICHITA        TSTM      62  58  86 VRB3      29.78R FOG
OMAHA          PTSUNNY   65  48  54 NW29G35   29.73R
LINCOLN        CLOUDY    64  43  46 NW23G29   29.80R
FALLS CITY     TSTM      64  60  87 SW15      29.75R FOG
LAMONI         LGT RAIN  73  63  70 S15G26    29.79F
DES MOINES     PTSUNNY   74  62  66 S22       29.75F

$$





USA.gov is the U.S. government's official web portal to all federal, state and local government web resources and services.